CZ-6A DEB

Satellite information

Favourite Embed

Satellite Type and Status

DEBRISIN ORBIT

Key statistics

Satellite CZ-6A DEB at a glance.

Uptime

276

Days in orbit

Revolutions

≈ 14.2

Per day

Orbit

LEO

Low Earth Orbit

Inclination

89.0

Latest

Satellite identification and parameters

Extended collection of information and parameters for CZ-6A DEB.

Object identification

Identified? True

Debris? True

Object name: CZ-6A DEB

International designator: 2024-140TB

Object number (NORAD): 61290

Object ID (CCSDS): 61290

Country: PEOPLES REPUBLIC OF CHINA (PRC)

Current information (Y/N): Y

RCS size: SMALL

Orbital parameters

Period: 101.062 minutes

Inclination: 89.0037 deg

SMA: 7187.055 km

Apoapsis: 825.161 km

Periapsis: 792.678 km

RAAN: 320.1358 deg

Eccentricy: 0.0022598

Argument of periapsis: 75.5629 deg

Mean anomaly: 284.8069 deg

Mean motion: 14.24873592 rev/day

Mean motion (dot): 0.000005 rev/day2

B* drag term: 0.00020743 1/REarth

Two-line elements (TLE)

Creation date: May 9, 2025, 2:46 a.m.

Reference frame: TEME

Reference center: EARTH

Epoch: May 8, 2025, 12:25 p.m. UTC

TLE line 0: 0 CZ-6A DEB

TLE line 1: 1 61290U 24140TB 25128.51787568 .00000500 00000-0 20743-3 0 9998

TLE line 2: 2 61290 89.0037 320.1358 0022598 75.5629 284.8069 14.24873592 36022

Live tracking on map

Real-time ground track for satellite CZ-6A DEB.

In-orbit conjunctions

A list of the most updated potential collisions computed for object CZ-6A DEB.

Target Orbit TCA Probability of collision Miss distance Type
SAFIR 2 SSO 2025-04-03 21:01:51 0.0001769416 574.0 (m) PAYLOAD
FENGYUN 1C DEB SSO 2025-03-23 20:33:10 0.0002255657 234.0 (m) DEBRIS
COSMOS 1867 LEO 2024-12-17 12:48:45 0.03299758 40.0 (m) PAYLOAD
THOR BURNER 2 R/B SSO 2024-10-19 10:47:32 0.0005322054 297.0 (m) ROCKET BODY

Associated space launch

18 Low Earth Orbit communication satellites with Ku, Q and V band payloads for the G60 constellation operated by Shanghai Spacecom Satellite Technology (SSST) with funding backed by the Shanghai local government. Initial constellation will consist of 1296 satellites by 2027 with long term plans to expand it to 12000 satellites.

CZ-6A DEB was lifted into orbit during the mission ‘Long March 6A | G60 Polar Group 01’, on board a Long March 6A space rocket.

The launch took place on Aug. 6, 2024, 6:42 a.m. from Launch Complex 9A.

For more information about the launch, click the button.

Launch to space Long March 6A | G60 Polar Group 01
Long March 6A | G60 Polar Group 01

Agency: N/A

Status: Launch Successful

Launch date: Aug. 6, 2024, 6:42 a.m. UTC

Rocket: Long March 6A

Launch pad: Launch Complex 9A

Location: Taiyuan Satellite Launch Center, People's Republic of China

...

Latest news about this satellite

News about space launch
Brightness of first Chinese broadband constellation satellites alarms astronomers

The first satellites of a Chinese broadband constellation are significantly brighter than those of Western systems, posing a new challenge for astronomers.

News about space launch
Chinese rocket stage breaks up into cloud of more than 700 pieces of space debris

HELSINKI — A Chinese Long March 6A rocket’s upper stage has fragmented into a cloud of over 700 pieces of space debris, adding to concerns about long-term orbital safety. China […]

News about space launch
China's Thousand Sails Megaconstellation Kicks Off with Dangerous Debris Field

China's Thousand Sails Megaconstellation Kicks Off with Dangerous Debris Field


Newsletter sign-up

Weekly statistics, charts and insights to help you stay on top of the space industry.